Temp
13 13 14 17 20 21 21 20 22 22 20 20 20 21 22 22 22 22 23 24 24 25 26 25 22 22 22 22 22 23 23 23 23 23 23 19 18 17 17 18 21 21 21 20
13 12 16 19 20 20 20 20 20 20 19 19 21 20 21 21 22 23 23 23 24 24 24 23 21 20 21 21 21 22 22 22 22 22 23 22 19 18 17 17 17 18 20 20
15 14 14 15 18 19 19 19 20 19 18 19 19 19 20 19 20 20 20 21 22 22 22 21 21 20 20 19 18 18 19 20 21 21 22 22 21 20 19 18 18 17 17 18
13 15 14 15 18 19 18 20 20 18 18 19 19 21 20 19 19 20 20 21 21 20 20 20 20 19 18 17 16 17 17 18 18 18 19 20 21 21 21 20 20 19 18 16
12 14 13 16 18 19 19 19 18 18 18 18 19 19 20 19 18 19 19 19 19 19 20 20 19 18 18 16 16 16 17 18 17 17 18 18 19 20 20 20 20 19 19 17
11 10 12 15 13 18 18 17 17 17 17 17 20 20 19 19 20 19 19 19 19 19 19 19 18 18 18 17 16 16 17 17 17 17 17 17 17 18 19 20 20 19 19 19
9 9 11 12 12 14 17 17 15 15 15 18 17 17 21 21 20 20 19 19 19 19 19 18 18 17 17 16 16 16 16 17 17 17 17 17 17 17 17 18 19 19 19 18
13 12 9 9 12 12 14 17 17 17 17 18 15 17 20 20 19 18 18 18 18 18 18 18 17 17 16 15 15 14 15 15 16 16 16 16 17 17 17 17 17 18 18 19
12 12 10 10 11 14 12 15 16 16 16 17 18 18 18 18 18 18 18 18 18 18 18 17 17 16 15 15 14 13 14 14 14 14 15 15 16 15 15 15 16 16 17 17
15 12 13 12 13 14 15 16 15 14 16 18 18 19 20 16 17 18 19 19 18 18 18 17 16 15 15 14 13 13 13 13 13 13 13 13 13 13 13 13 13 13 14 14
17 16 12 15 15 16 15 15 15 16 16 19 20 19 19 18 18 18 18 18 18 17 17 16 16 15 14 13 13 12 12 12 12 12 12 12 12 12 12 12 12 11 10 11
16 15 13 14 14 15 16 17 17 16 16 15 16 18 19 19 19 18 18 18 18 17 16 15 14 14 14 13 12 12 11 11 10 10 10 10 10 10 9 9 9 9 9 9
16 14 12 12 14 14 14 15 16 15 13 13 18 18 19 19 18 18 18 18 17 16 15 14 14 13 13 12 11 10 10 9 9 9 9 8 8 7 7 6 6 6 7 7
16 15 15 15 13 14 12 14 15 13 13 16 17 17 17 18 18 19 18 18 17 15 14 13 13 13 12 11 10 9 9 8 8 8 7 6 5 5 4 4 4 3 4 4
16 12 12 14 14 11 13 13 13 10 14 14 18 18 18 18 18 18 18 17 16 15 13 12 11 12 11 10 10 9 8 7 7 7 6 5 4 3 2 2 2 2 2 2
14 11 11 11 13 13 12 14 14 13 14 15 16 16 18 19 18 17 17 15 15 14 13 11 10 10 10 9 8 8 7 6 6 6 5 4 4 2 1 1 1 2 1 1
15 13 12 14 13 13 13 14 14 14 15 15 14 17 18 17 17 17 16 15 14 13 12 11 10 9 9 8 7 7 6 5 5 4 4 3 2 1 0 0 1 1 1 1
14 14 14 13 13 13 14 15 15 15 15 15 16 16 17 17 16 16 15 15 14 12 11 10 9 8 7 7 7 6 5 4 3 2 2 2 1 -0 -0 -0 -0 0 0 -0
16 15 13 13 14 16 16 14 14 14 15 16 15 16 17 17 15 15 14 13 12 11 10 9 8 6 6 6 5 5 4 2 1 1 1 0 -0 -0 -0 -0 -0 -0 -0 -1
14 15 13 13 13 15 16 15 16 15 15 17 16 16 16 15 16 16 13 11 10 9 9 8 7 6 6 5 5 4 3 2 1 1 0 0 -0 -0 -0 -0 -1 -1 -1 -2
13 13 12 13 13 15 16 15 16 14 13 16 16 16 15 15 15 13 12 10 9 9 8 7 7 6 5 4 4 3 1 0 0 0 0 0 0 -0 -0 -1 -1 -1 -1 -1
14 13 13 13 12 12 16 15 14 13 15 15 15 14 14 14 13 12 11 10 8 7 7 6 6 5 4 3 2 1 0 0 0 0 0 -0 -0 -0 -1 -0 -1 0 1 1
14 15 15 15 15 15 15 15 14 14 14 14 13 13 13 12 13 12 11 10 8 7 6 6 6 3 2 1 1 1 0 0 0 0 0 0 1 1 1 1 1 2 2 2
14 15 14 14 16 16 15 15 15 13 12 12 12 12 12 12 12 12 11 10 8 6 6 6 4 3 2 2 1 1 0 0 1 2 2 2 2 2 2 1 1 2 2 2
15 14 14 15 16 15 15 15 13 12 12 12 11 11 11 11 11 12 12 11 9 6 6 5 6 5 3 2 1 1 1 1 3 3 2 2 2 2 1 1 1 0 -1 -0
15 14 14 14 16 16 15 13 12 11 11 10 10 10 11 10 11 11 11 11 9 7 4 4 5 4 3 3 2 1 1 3 3 2 2 2 1 2 1 1 -1 -2 -2 -2
Height
759 763 762 752 747 748 749 756 752 755 765 770 771 769 765 765 767 768 766 764 762 761 761 764 769 771 773 774 774 775 776 777 779 780 781 782 784 787 788 789 791 793 795 797
758 766 754 749 748 750 753 753 758 762 769 774 767 770 766 766 764 762 762 761 760 760 762 765 770 771 771 771 771 772 773 774 775 776 776 776 780 782 783 784 785 786 788 789
747 755 759 760 752 755 756 761 758 764 774 772 772 773 765 769 768 768 768 766 764 764 765 768 769 769 770 771 772 771 771 771 772 773 773 773 774 776 777 778 778 779 781 784
759 753 763 759 753 751 759 754 757 769 772 772 768 760 762 769 769 767 765 764 766 767 768 771 770 771 772 772 772 771 770 769 770 770 770 771 770 770 771 773 774 776 776 777
761 759 761 755 750 749 754 760 766 769 768 770 770 769 756 763 769 767 766 768 770 769 769 770 772 773 773 773 772 771 770 769 768 768 768 768 767 767 768 769 770 771 771 771
765 770 765 754 764 752 761 769 773 773 773 779 759 761 763 761 760 766 765 766 768 769 770 771 773 773 772 773 772 771 769 768 767 767 766 765 765 765 764 765 765 766 767 767
779 781 771 770 772 772 763 768 785 788 786 767 771 777 751 746 754 760 764 766 768 770 771 772 772 773 773 772 771 770 768 767 766 765 764 763 763 763 762 763 762 762 762 762
755 768 782 781 774 777 771 761 759 765 764 759 782 770 748 752 759 766 768 769 770 770 770 771 772 773 772 772 771 770 768 766 765 763 763 762 761 762 761 760 759 759 758 758
758 768 782 779 778 771 779 771 766 765 768 762 758 759 763 760 763 765 765 766 768 769 769 770 771 772 772 772 771 770 768 766 764 762 762 761 761 761 760 759 759 758 757 756
750 766 771 774 774 773 766 763 771 773 770 760 755 751 741 764 765 764 763 765 766 767 768 769 770 772 772 771 771 769 769 767 766 764 763 762 761 761 760 759 758 756 755 754
742 748 774 765 763 759 766 765 766 763 764 748 743 745 745 751 758 762 763 764 765 766 767 769 770 771 771 770 771 770 769 768 767 765 764 763 761 760 759 758 757 755 753 752
749 753 767 767 767 765 759 754 754 762 766 767 762 753 747 747 753 761 763 762 764 767 769 770 770 770 770 771 770 770 771 771 768 766 764 763 762 760 759 758 757 755 753 751
747 758 771 774 770 768 768 761 759 768 775 775 755 754 749 751 758 757 760 760 763 767 770 770 769 769 770 771 772 772 772 771 769 766 765 765 763 762 760 759 757 755 754 753
748 752 754 752 762 759 771 762 765 774 776 760 755 755 757 756 755 754 757 758 762 766 769 770 770 770 772 773 773 773 772 772 769 769 767 767 764 763 761 760 757 756 755 753
749 764 766 761 761 772 767 765 768 782 767 765 750 751 750 750 752 753 755 758 761 764 768 770 772 772 773 773 773 773 774 773 772 770 769 767 766 764 763 761 758 758 757 756
755 769 769 770 763 765 769 763 763 767 766 762 760 759 747 747 750 754 755 759 761 764 768 771 772 774 774 773 774 774 774 774 773 770 768 769 766 767 766 764 762 761 761 759
755 764 768 760 768 765 762 752 754 756 756 757 763 752 747 750 752 754 755 760 762 764 768 771 772 773 773 774 774 775 776 774 773 771 770 771 769 770 769 768 765 764 764 762
754 759 760 760 762 759 746 745 743 748 748 752 751 749 750 750 752 752 756 758 763 767 768 769 771 773 774 774 776 777 775 775 775 774 773 773 770 772 772 772 770 769 768 768
749 752 758 758 751 739 736 747 748 748 745 745 750 748 748 749 753 752 757 762 765 767 768 769 773 776 775 775 777 776 776 778 778 775 775 775 774 776 776 775 773 774 774 774
757 753 759 761 757 744 738 741 740 742 744 739 744 746 748 752 749 746 757 763 767 768 769 772 774 775 775 777 777 777 779 780 779 777 778 777 777 779 779 779 779 778 779 780
758 759 760 759 757 743 736 742 741 750 756 744 745 746 750 753 754 758 761 765 767 767 771 773 773 774 776 777 778 779 780 781 781 779 780 780 781 782 782 782 783 783 783 784
750 754 754 755 761 757 739 744 748 751 745 747 748 751 753 755 755 758 761 765 766 768 772 772 772 774 776 779 780 781 782 782 782 782 782 783 784 784 786 786 787 788 788 788
750 743 743 744 742 740 740 742 746 748 748 751 753 753 755 756 755 756 759 762 765 768 771 772 772 775 778 779 780 781 782 782 784 785 785 786 786 788 789 789 790 790 789 789
743 741 746 747 734 738 741 743 745 749 752 753 753 754 754 755 754 754 756 760 763 767 769 770 773 775 777 778 779 780 782 784 785 787 788 788 788 790 790 791 791 791 790 790
737 741 741 738 735 738 740 741 747 751 753 754 754 754 754 754 754 754 753 756 760 764 767 769 771 773 775 777 779 781 782 783 785 787 788 789 790 791 792 792 792 792 791 790
735 736 738 735 730 730 736 744 749 751 752 754 755 754 753 754 753 752 752 753 756 760 764 767 769 771 774 776 778 780 782 784 785 787 789 790 790 792 792 792 793 791 791 790
Wind_Speed
12 7 15 27 25 18 15 19 14 13 8 10 16 14 17 11 13 14 13 13 13 14 12 7 9 11 12 14 14 16 17 19 20 20 20 17 23 28 26 24 23 22 23 23
9 7 17 21 19 14 9 16 14 5 10 8 12 12 9 13 15 15 12 12 12 10 8 6 8 9 10 10 12 15 17 17 19 20 21 21 19 23 26 25 28 25 25 27
12 8 10 11 17 14 12 14 14 8 8 8 3 12 13 3 4 4 7 9 4 3 3 2 3 3 2 3 4 8 12 14 17 19 19 20 20 22 20 22 24 25 27 28
1 6 18 13 17 15 13 10 9 7 12 5 8 3 10 10 7 6 6 7 7 7 6 4 4 5 5 5 5 5 4 8 13 15 17 19 20 20 21 22 20 21 22 26
4 12 13 19 15 16 6 9 10 7 6 1 8 5 9 12 10 8 8 8 6 5 4 4 4 4 5 6 6 6 5 4 4 8 13 17 20 21 21 20 21 23 21 23
5 4 4 2 7 4 14 14 8 4 1 5 9 8 10 11 11 9 8 8 5 4 3 4 4 4 5 6 7 8 7 6 5 5 5 10 15 18 19 19 19 19 19 20
2 3 3 5 9 3 10 13 4 4 4 3 4 5 6 10 14 10 8 7 4 2 2 4 5 7 8 9 10 9 9 9 8 8 7 7 9 12 16 19 19 20 20 20
3 5 1 1 3 6 13 13 3 6 6 6 4 6 2 12 13 8 4 2 1 1 2 3 5 7 9 10 11 11 10 10 9 9 9 8 8 8 9 11 15 18 19 20
2 5 4 1 4 2 5 5 2 1 3 2 6 4 3 8 11 5 4 3 1 0 2 4 6 7 8 8 9 10 10 9 9 8 8 8 8 8 9 10 11 13 14 16
4 5 5 8 10 5 4 7 2 1 5 5 5 5 3 16 16 8 5 2 0 1 2 4 5 6 7 7 7 8 9 9 9 9 8 7 7 8 8 8 9 10 11 12
7 2 3 2 3 4 3 3 1 3 2 3 4 3 5 15 16 7 1 1 1 1 2 4 4 5 4 5 6 8 10 10 11 11 10 9 10 10 10 10 11 11 11 11
2 5 5 2 2 5 5 4 8 3 4 1 4 4 3 15 15 4 1 0 1 0 2 4 4 4 3 4 6 8 9 9 11 12 11 10 10 11 11 12 12 13 12 10
5 5 4 2 2 2 5 7 4 2 3 4 3 5 5 10 6 4 2 2 1 1 3 3 3 2 2 4 5 7 8 10 11 12 12 11 11 11 11 12 12 11 11 9
1 2 2 0 3 3 4 8 8 4 2 3 5 8 11 10 5 3 2 2 2 2 2 4 3 2 1 3 5 7 8 9 10 9 10 10 11 11 11 11 11 12 10 9
1 2 3 3 4 3 3 7 11 6 8 3 3 6 13 0 4 3 4 1 3 3 3 4 3 2 1 2 4 6 7 7 7 9 10 11 12 12 11 12 13 11 12 11
1 2 2 1 1 5 6 9 11 14 15 13 11 9 8 1 2 3 3 1 2 3 3 1 1 1 1 2 4 5 6 6 8 8 11 10 11 12 11 12 13 15 15 18
5 5 4 3 3 5 9 16 16 11 9 16 11 8 4 4 4 4 2 2 2 2 2 2 1 0 2 4 4 4 4 6 7 8 9 9 11 10 10 11 16 19 20 22
5 5 2 1 3 4 3 3 2 16 8 11 8 7 5 6 5 3 3 3 2 1 1 2 1 1 2 2 2 3 5 6 6 7 9 8 11 11 13 15 17 19 21 22
4 4 2 3 4 7 5 3 4 8 9 13 14 9 6 3 4 7 6 2 1 1 2 2 1 3 2 2 2 3 6 5 6 9 9 9 11 13 14 17 19 20 22 22
1 3 3 2 3 3 5 3 3 4 3 5 10 6 3 2 3 5 8 5 4 2 2 4 5 3 2 2 2 4 4 5 7 9 10 11 12 13 16 16 18 18 20 20
5 4 7 6 3 5 5 5 2 3 3 4 2 1 2 3 4 2 5 5 5 4 3 5 5 4 3 3 3 6 7 7 8 13 13 14 14 15 15 15 13 15 14 14
7 5 4 5 4 6 4 4 3 2 0 3 2 2 2 4 5 3 5 6 6 6 6 6 7 6 6 5 7 8 9 9 10 13 14 13 11 10 10 11 9 8 8 8
4 4 2 5 2 4 2 5 6 4 4 3 2 1 2 4 4 4 6 7 6 7 6 6 8 9 7 7 8 9 9 11 12 9 10 9 9 8 7 6 6 5 5 4
5 4 4 1 3 8 7 3 3 3 0 2 3 3 3 6 5 5 7 7 7 9 9 9 9 9 10 9 9 10 11 10 10 9 8 8 8 7 6 5 4 4 3 3
2 8 7 10 10 4 5 6 5 2 0 1 2 3 4 5 6 6 7 9 11 12 12 12 11 10 11 11 11 11 11 10 8 8 7 6 6 5 6 5 4 3 3 3
8 8 7 5 5 6 4 7 3 2 1 2 4 5 4 5 7 6 7 11 13 14 14 13 12 13 12 12 12 11 11 10 10 8 7 6 6 5 5 5 5 6 5 4
Wind_Direction
175 174 192 196 200 213 235 203 223 202 146 199 220 236 233 219 240 247 253 249 246 250 254 255 270 263 261 254 251 247 245 241 239 240 235 213 229 240 235 232 234 234 231 228
172 207 202 196 206 210 255 197 192 158 146 211 209 235 233 240 245 250 263 267 265 266 273 267 281 265 258 259 255 252 248 243 241 242 243 232 234 243 241 242 236 235 232 228
195 145 226 264 197 184 199 195 192 196 169 221 255 240 229 213 240 237 240 247 246 220 184 169 91 74 82 29 329 278 264 259 250 249 253 253 234 239 235 234 240 239 238 236
176 143 182 208 189 192 180 203 165 157 180 209 194 222 177 171 170 164 144 144 135 134 114 95 64 59 52 36 20 6 325 269 258 252 251 251 251 243 241 248 248 247 243 244
111 201 194 196 191 198 188 153 167 179 214 275 191 248 131 166 169 154 142 135 128 113 79 68 50 25 30 18 2 349 346 343 314 263 249 249 251 254 256 253 253 254 253 246
29 32 344 211 54 141 136 129 118 110 195 235 213 227 167 185 173 151 140 136 128 92 63 46 39 10 2 353 343 331 317 314 314 314 283 256 260 265 260 255 257 260 257 254
78 18 60 23 88 35 175 169 136 168 188 231 133 202 335 149 146 146 136 134 127 94 46 24 18 4 0 349 339 325 314 307 305 295 293 283 271 264 262 264 265 261 257 256
99 114 50 248 125 177 186 194 232 191 192 159 159 217 160 149 131 137 145 124 179 180 18 14 6 356 351 349 349 343 331 315 309 299 295 291 287 280 271 267 264 267 268 267
106 79 79 81 207 133 174 199 27 31 38 175 173 142 144 159 166 172 129 192 155 311 351 358 349 354 347 351 358 354 352 352 352 339 319 305 300 303 298 295 286 280 279 285
147 103 120 153 152 161 193 144 163 197 173 211 177 190 166 180 181 177 171 164 91 258 345 350 341 342 341 349 360 4 7 10 11 6 2 351 344 339 332 324 317 310 302 297
148 106 127 183 215 179 137 183 226 312 313 293 158 146 20 174 171 146 142 108 311 290 353 334 336 341 343 356 4 9 10 5 5 2 355 352 350 344 339 336 335 329 322 317
27 105 146 119 55 329 327 239 204 232 179 8 323 89 215 157 165 130 344 243 270 307 356 339 337 337 358 13 17 18 8 0 0 358 359 2 0 0 356 352 344 338 331 329
160 142 131 153 223 205 231 211 224 88 5 203 262 119 160 142 157 209 253 292 272 329 9 348 337 351 8 25 26 18 9 3 3 5 6 5 9 9 8 5 3 5 2 1
32 125 312 22 81 93 202 211 202 167 180 185 237 132 158 166 201 211 268 326 336 9 5 358 341 336 21 7 17 12 8 7 12 14 22 16 18 18 18 19 24 19 17 20
7 108 75 39 81 101 236 197 204 193 218 223 32 197 171 281 285 318 311 349 332 339 341 343 334 317 326 23 18 11 6 9 11 30 31 27 26 25 30 37 40 43 47 52
103 110 84 271 236 239 251 231 209 217 227 240 256 262 283 354 300 300 300 314 300 305 303 316 329 331 315 17 7 11 5 10 21 32 38 29 41 34 34 47 58 63 62 67
170 148 184 157 210 246 252 228 211 205 207 219 224 236 209 305 309 294 266 202 251 322 288 205 216 6 11 13 3 8 6 21 28 36 42 35 48 49 53 66 80 80 85 89
184 165 192 311 228 236 84 63 216 218 215 211 229 249 277 304 304 271 203 217 234 266 223 184 147 76 35 28 13 25 36 36 46 55 53 47 64 71 77 83 83 88 92 90
229 192 184 247 229 304 209 194 177 172 232 214 225 246 269 313 292 239 181 143 29 8 53 61 120 158 97 43 36 53 58 61 72 71 67 69 76 83 86 87 92 94 94 89
139 274 232 192 260 262 60 114 158 226 130 148 206 226 277 324 277 99 154 159 159 122 76 199 174 136 128 94 101 97 92 95 84 83 88 89 91 95 93 95 98 100 96 95
178 212 230 237 269 291 136 125 184 236 92 74 116 259 298 264 9 76 141 155 155 116 183 178 152 126 115 99 123 113 104 93 97 103 103 102 104 104 107 109 105 100 95 88
193 195 206 210 232 259 129 146 221 54 315 4 69 37 307 312 308 235 203 175 160 153 181 179 146 133 123 130 134 128 118 123 119 115 111 108 104 98 101 101 95 97 96 91
220 222 247 217 226 77 142 73 70 68 82 55 343 338 295 284 281 242 209 190 180 174 188 178 156 143 147 152 148 139 137 134 128 122 114 112 106 103 102 101 101 97 89 85
230 205 231 275 222 224 172 202 168 130 198 318 300 274 270 275 284 263 218 195 182 183 187 174 162 159 156 159 161 157 151 149 142 136 132 127 119 116 109 104 94 93 83 76
316 163 229 244 260 201 214 218 146 130 288 326 308 280 271 277 271 261 231 204 194 188 187 179 180 173 168 163 164 168 164 161 156 145 142 137 130 128 117 98 81 95 87 103
216 230 224 252 295 254 94 149 143 222 212 355 326 307 280 269 276 270 249 217 198 191 185 190 188 176 176 175 174 179 177 174 165 161 164 162 154 155 149 138 105 96 98 89